#timestamp,LO_Frequency,Hit,StdDev 
1459047615.7,286046995.7,N
1459047635.5,286046995.3,N
1459047655.4,286046995.0,N
1459047675.2,286046996.5,N
1459047695.0,286047000.6,N
1459047695.9,286047000.6,N
1459047715.8,286047000.6,N
1459047735.6,286046998.8,N
1459047755.4,286046999.1,N
1459047775.3,286046995.7,N
1459047795.1,286046993.3,N
1459047796.0,286046993.3,N
1459047815.8,286046992.7,N
1459047835.7,286046990.7,N
1459047855.5,286046992.4,N
1459047875.3,286046992.9,N
1459047895.2,286046987.0,Y
1459047915.9,286046994.1,P
1459047935.7,286046996.1,P
1459047955.6,286046993.4,P
1459047975.4,286046999.0,N
1459047995.2,286046997.1,N
1459048015.0,286046997.9,N
1459048016.0,286046997.9,N
1459048035.8,286046994.9,N
1459048055.6,286046998.3,N
1459048075.4,286046998.4,N
1459048095.3,286047000.8,N
1459048115.1,286047001.4,N
1459048135.8,286047002.8,N
1459048155.7,286047002.8,N
1459048175.5,286046999.9,N
1459048195.3,286046999.7,N
1459048215.2,286046999.8,N
1459048235.9,286046999.3,N
1459048255.7,286046995.1,N
1459048275.5,286046995.3,N
1459048295.4,286046993.6,N
1459048315.2,286046992.1,N
1459048335.0,286046993.2,N
1459048335.9,286046993.2,N
1459048355.8,286046993.2,N
1459048375.6,286046990.5,Y
1459048395.4,286046992.5,P
1459048415.3,286046990.5,P
1459048435.1,286046993.1,N
1459048455.8,286046992.9,N
1459048475.7,286046990.1,Y
1459048495.5,286047001.2,P
1459048515.3,286046999.9,N
1459048535.2,286047001.3,N
1459048555.9,286047003.4,N
1459048575.7,286047005.7,N
1459048595.6,286047004.7,N
1459048615.4,286047004.4,N
1459048635.2,286047004.2,N
1459048655.1,286047004.2,N
1459048656.0,286047004.2,N
1459048675.8,286046999.7,N
1459048695.6,286046999.8,N
1459048715.5,286046999.8,N
1459048735.3,286046999.7,N
1459048755.1,286047001.5,N
1459048775.8,286047001.9,N
1459048795.7,286047001.6,N
1459048815.5,286047000.3,N
1459048835.3,286047001.9,N
1459048855.2,286047004.4,N
1459048875.9,286047002.1,N
1459048895.7,286047002.3,N
1459048915.6,286047001.0,N
1459048935.4,286047000.1,N
1459048955.2,286047001.6,N
1459048975.1,286047004.2,N
1459048976.0,286047004.2,N
1459048995.8,286047005.9,N
1459049015.6,286047006.9,N
1459049035.5,286047007.4,N
1459049055.3,286047009.4,Y
1459049075.1,286047006.4,P
1459049095.9,286047006.1,P
1459049115.7,286047008.0,P
1459049135.5,286047011.5,Y
1459049155.4,286047004.7,P
1459049175.2,286047008.1,P
1459049195.0,286047010.1,P
1459049195.9,286047010.1,Y
1459049215.8,286047006.7,P
1459049235.6,286047004.5,P
1459049255.4,286047004.9,P
1459049275.3,286047003.3,N
1459049295.1,286047003.7,N
1459049296.0,286047003.7,N
1459049315.8,286047003.7,N
1459049335.6,286047001.5,N
1459049355.5,286047000.3,N
1459049375.3,286047002.6,N
1459049395.1,286047004.1,N
1459049415.9,286047004.3,N
1459049435.7,286047003.3,N
1459049455.5,286047002.9,N
1459049475.4,286047002.8,N
1459049495.2,286047001.5,N
1459049515.0,286047001.1,N
1459049515.9,286047001.1,N
1459049535.8,286047000.9,N
1459049555.6,286047003.6,N
1459049575.4,286047003.8,N
1459049595.3,286047003.4,N
1459049615.1,286047001.9,N
1459049616.0,286047001.9,N
1459049635.8,286046999.8,N
1459049655.6,286047002.6,N
1459049675.5,286047000.4,N
1459049695.3,286047000.5,N
1459049715.1,286047000.0,N
1459049735.9,286047000.5,N
1459049755.7,286047002.5,N
1459049775.5,286046999.8,N
1459049795.4,286047000.3,N
1459049815.2,286046999.4,N
1459049835.0,286046999.1,N
1459049835.9,286046999.1,N
1459049855.8,286046991.8,Y
1459049875.6,286046991.3,P
1459049895.4,286046991.4,N
1459049915.3,286046990.2,N
1459049935.1,286046991.1,N
1459049936.0,286046991.1,N
1459049955.8,286046991.3,N
1459049975.7,286046992.8,N
1459049995.5,286046992.9,N
1459050015.3,286046990.1,Y
1459050035.2,286047000.8,P
1459050055.9,286046998.3,N
1459050075.7,286046998.1,N
1459050095.6,286047003.9,N
1459050115.4,286047004.0,N
1459050135.2,286047004.9,N
1459050155.0,286047006.3,N
1459050155.9,286047006.3,N
1459050175.8,286047005.9,N
1459050195.6,286047000.2,N
1459050215.4,286047000.1,N
1459050235.3,286047000.1,N
1459050255.1,286046998.2,N
1459050256.0,286046998.2,N
1459050275.8,286046998.3,N
1459050295.7,286046996.9,N
1459050315.5,286046999.3,N
1459050335.3,286046997.3,N
1459050355.2,286046997.0,N
1459050375.9,286046999.7,N
1459050395.7,286047003.3,N
1459050415.5,286047004.1,N
1459050435.4,286047004.1,N
1459050455.2,286047001.8,N
1459050475.0,286047001.1,N
1459050475.9,286047001.1,N
1459050495.8,286046999.7,N
1459050515.6,286046998.8,N
1459050535.4,286046997.6,N
1459050555.3,286046994.9,N
1459050575.1,286046997.3,N
1459050576.0,286046997.3,N
1459050595.8,286046995.8,N
1459050615.7,286046992.9,N
1459050635.5,286046994.0,N
1459050655.3,286046990.5,N
1459050675.2,286046994.3,N
1459050695.9,286046989.0,Y
1459050715.7,286046991.0,P
1459050735.6,286046991.6,N
1459050755.4,286046989.4,N
1459050775.2,286046986.2,Y
1459050795.1,286046990.4,P
1459050796.0,286046990.4,P
1459050815.8,286046988.6,P
1459050835.6,286046990.8,Y
1459050855.5,286046996.5,P
1459050875.3,286046995.4,N
1459050895.1,286046993.9,N
1459050915.9,286046993.3,N
1459050935.7,286046995.8,N
1459050955.5,286046999.6,N
1459050975.3,286046998.9,N
1459050995.2,286047000.5,N
1459051015.0,286046999.1,N
1459051015.9,286046999.1,N
1459051035.7,286046999.5,N
1459051055.6,286046998.9,N
1459051075.4,286046998.9,N
1459051095.2,286046999.4,N
1459051115.1,286047003.4,N
1459051116.0,286047003.4,N
1459051135.8,286047004.4,N
1459051155.6,286047003.2,N
1459051175.5,286047007.4,N
1459051195.3,286047009.2,N
